Flag for Germany Weather past 2 weeks in Burgdorf, Lower Saxony, Germany

Now
37 °F

Passing clouds.


Feels Like: 37 °F
Forecast: 39 / 49 °F
Wind: 2 mph from Southeast

Location: Celle Airport


UV Index: 0 (Low)

Visibility: N/A


Pressure: 30.30 "Hg

Humidity: 70%

Dew point: 28 °F

Location of BurgdorfLocation

Historic Weather in Burgdorf

°F

Burgdorf temperature yesterday

Maximum temperature yesterday: 55 °F (at 3:20 PM)
Minimum temperature yesterday: 30 °F (at 4:20 AM)
Average temperature yesterday: 44 °F

Past Weeks' High & Low Weather Summary

 TemperatureHumidityPressure
High70 °F (Apr 2, 4:20 PM)100% (Apr 5, 11:50 PM)30.48 "Hg (Apr 5, 11:50 PM)
Low30 °F (Apr 16, 4:20 AM)36% (Apr 16, 5:20 PM)29.65 "Hg (Apr 3, 1:20 AM)
Average50 °F77%29.99 "Hg
* Reported Apr 2 5:20 AM — Apr 17 5:20 AM, Burgdorf, Weather by CustomWeather, © 2014

Note: Actual official high and low records may vary slightly from our data, if they occured in-between our weather recording intervals... More about our weather records

Advertising

Historic Weather Conditions — Data for Previous 24 hours

 ConditionsComfort  
Time TempWeatherWind HumidityBarometerVisibility
5:20 AM
Apr 17
37 °FPassing clouds.2 mph70%30.30 "HgN/A
4:20 AM37 °FPassing clouds.1 mph75%30.30 "HgN/A
3:20 AM41 °FPassing clouds.2 mph61%30.33 "HgN/A
2:20 AM41 °FPassing clouds.2 mph66%30.36 "HgN/A
1:20 AM39 °FPassing clouds.1 mph75%30.36 "HgN/A
12:20 AM39 °FPassing clouds.No wind81%30.36 "HgN/A
11:20 PM
Apr 16
41 °FPassing clouds.1 mph76%30.36 "HgN/A
10:20 PM43 °FPassing clouds.1 mph71%30.39 "HgN/A
9:20 PM45 °FPassing clouds.1 mph66%30.39 "HgN/A
8:20 PM52 °FScattered clouds.2 mph47%30.39 "HgN/A
7:20 PM55 °FPassing clouds.5 mph38%30.39 "HgN/A
6:20 PM55 °FPassing clouds.6 mph38%30.39 "HgN/A
5:20 PM55 °FScattered clouds.7 mph36%30.39 "HgN/A
4:20 PM55 °FScattered clouds.6 mph41%30.42 "HgN/A
3:20 PM55 °FScattered clouds.5 mph44%30.42 "HgN/A
2:20 PM54 °FPassing clouds.5 mph47%30.45 "HgN/A
1:20 PM52 °FPassing clouds.3 mph58%30.45 "HgN/A
12:20 PM48 °FPassing clouds.1 mph66%30.45 "HgN/A
11:20 AM48 °FPassing clouds.2 mph71%30.48 "HgN/A
10:20 AM46 °FPassing clouds.2 mph71%30.48 "HgN/A
9:20 AM41 °FPassing clouds.1 mph81%30.48 "HgN/A
8:20 AM36 °FPassing clouds.2 mph93%30.45 "HgN/A
7:20 AM32 °FFog.1 mph100%30.42 "HgN/A
6:20 AM30 °FLight fog.1 mph100%30.42 "HgN/A
Weather by CustomWeather, © 2014

See weather overview